Wind_Speed
43 42 39 39 33 36 36 40 41 39 38 37 35 35 37 37 39 40 37 36 33 32
45 41 41 40 39 38 39 42 41 38 37 36 33 33 34 34 35 34 33 33 30 29
46 44 43 41 41 41 43 43 41 39 38 37 35 33 33 32 30 27 27 26 25 22
35 38 42 42 42 45 45 44 44 42 40 38 37 35 32 28 26 25 23 21 19 19
28 31 38 41 42 43 45 46 46 44 42 41 39 33 30 28 26 22 19 19 20 19
23 27 22 18 19 29 34 39 41 41 41 39 36 32 29 27 24 21 19 22 22 21
27 25 23 16 4 7 17 25 31 35 36 35 34 32 28 24 22 19 18 21 21 19
28 29 27 24 20 9 9 17 25 30 31 32 33 28 28 28 22 21 20 19 17 15
29 29 26 20 17 15 19 16 28 32 27 26 23 22 24 23 19 21 22 20 15 14
22 21 17 18 18 20 22 28 25 23 25 29 19 25 27 20 20 22 20 18 18 16
14 15 15 17 19 17 25 27 28 29 28 25 24 23 20 19 19 21 18 18 17 15
13 12 12 13 12 15 18 17 15 21 24 21 23 21 21 20 21 20 18 17 17 15
13 12 9 10 10 10 12 14 14 15 16 18 20 22 22 24 22 20 18 17 16 15
17 13 10 9 8 7 8 9 11 10 11 13 12 19 21 21 20 20 20 19 19 18
Wind_Direction
198 196 199 204 200 200 200 202 204 204 207 211 214 214 215 215 216 218 220 222 223 220
201 198 198 205 206 208 207 208 206 208 211 215 215 214 214 216 219 222 226 228 228 229
198 201 203 205 206 210 215 213 208 208 213 215 214 214 216 219 223 226 225 228 228 226
195 202 205 208 210 212 213 213 212 211 214 216 214 214 216 217 217 220 223 224 224 222
197 202 206 209 214 216 216 215 216 214 216 216 216 214 213 206 208 213 218 228 218 211
187 195 189 194 205 211 212 216 214 214 215 213 212 211 210 206 207 211 220 229 222 215
177 170 172 159 152 229 220 218 220 218 217 215 212 206 205 208 203 209 213 218 219 217
178 186 181 173 187 207 267 239 233 220 216 213 207 206 203 212 204 203 204 211 216 223
179 186 191 190 200 235 221 234 221 211 207 208 209 219 224 219 207 206 205 202 201 209
182 187 196 196 208 216 204 210 220 213 201 213 214 231 220 209 212 209 204 200 197 197
161 187 196 183 186 189 207 207 203 207 211 209 212 215 201 203 205 209 204 206 201 198
108 128 154 171 175 189 200 204 201 207 205 210 207 198 191 195 203 203 206 208 202 201
78 92 116 139 156 173 185 189 196 205 208 209 201 193 185 199 200 202 202 206 204 205
70 76 80 98 115 142 154 166 174 183 194 202 197 188 187 202 203 205 202 204 202 201
Height
743 748 754 759 766 770 774 778 784 789 793 797 801 804 807 810 812 815 819 822 825 828
736 741 746 753 760 768 771 774 781 786 791 795 798 801 804 808 811 814 818 820 824 828
726 734 741 748 753 759 767 771 776 780 784 789 793 797 800 804 808 813 815 818 822 824
727 733 737 743 748 752 758 766 770 774 778 783 788 792 796 800 805 809 812 816 819 821
726 733 735 739 744 749 753 757 764 769 772 777 782 788 792 795 800 804 808 812 816 817
723 730 735 741 746 749 751 756 760 764 767 772 778 782 789 790 795 799 803 808 813 813
717 725 732 736 744 750 755 756 759 762 765 770 774 778 784 787 790 795 798 806 810 812
715 722 726 730 735 739 754 756 758 760 763 767 770 773 775 782 781 789 795 803 807 810
713 718 724 729 733 738 743 747 753 758 756 765 769 761 772 779 782 792 793 796 803 808
713 718 724 725 727 731 736 743 748 748 756 759 756 765 776 776 785 790 791 794 798 805
712 716 719 724 729 730 740 742 746 753 755 753 756 768 771 777 783 788 789 794 798 801
719 721 722 726 730 733 739 741 744 750 753 754 758 764 769 777 781 785 789 793 796 801
724 727 730 730 734 738 742 743 746 750 752 755 757 762 765 773 777 781 785 793 796 800
730 732 736 737 738 741 743 746 748 750 753 758 757 762 767 774 777 780 785 789 795 796